Location: ČR
(50.0000°N, 15.0000°E)
Time: 12:16:20
(UTC+00:00)

ISS - Pass Details

Date: 01 October 2021
Orbit: 417 x 423 km, 51.6° (Epoch: 16 October)

Event Time Altitude Azimuth Distance (km) Brightness Sun altitude
Rises 18:14:23 0° 288° (WNW) 2,366 1.9 -16.2°
Reaches altitude 10° 18:16:32 10° 282° (WNW) 1,500 0.4 -16.5°
Maximum altitude 18:19:47 46° 208° (SSW) 577 -3.0 -17.0°
Enters shadow 18:20:46 34° 160° (SSE) 717 -2.9 -17.2°
